OK1ZXS-6 Weather Reports


Display with metric or nautical units.
time (UTC)temp
F
wind
direction
speed
MPH
gust
MPH
rain 1hr
in
rain 24hr
in
rain mn
in
humidity
%
barometer
mb
20260502195401 48 112 0.0 3.0 0.00 0.00 0.00 62
20260502193902 49 112 0.0 0.0 0.00 0.00 0.00 61
20260502192403 50 90 0.0 2.0 0.00 0.00 0.00 58
20260502190904 51 112 0.0 1.0 0.00 0.00 0.00 56
20260502185402 53 67 0.0 0.0 0.00 0.00 0.00 55
20260502183902 54 67 0.0 0.0 0.00 0.00 0.00 52
20260502182402 55 67 0.0 1.0 0.00 0.00 0.00 51
20260502180901 57 45 0.0 0.0 0.00 0.00 0.00 45
20260502163901 64 45 1.0 4.0 0.00 0.00 0.00 36
20260502162403 65 225 1.0 3.0 0.00 0.00 0.00 36
20260502160903 66 225 1.0 6.0 0.00 0.00 0.00 34
20260502150904 68 247 1.0 4.0 0.00 0.00 0.00 30
20260502122401 74 225 2.0 6.0 0.00 0.00 0.00 29
20260502120903 74 225 1.0 4.0 0.00 0.00 0.00 31
20260502115409 73 247 1.0 5.0 0.00 0.00 0.00 30
20260502113902 72 225 1.0 4.0 0.00 0.00 0.00 31
20260502112402 71 225 1.0 4.0 0.00 0.00 0.00 29
20260502110902 70 225 2.0 4.0 0.00 0.00 0.00 35
20260502105402 69 180 2.0 4.0 0.00 0.00 0.00 35
20260502103902 68 112 1.0 6.0 0.00 0.00 0.00 38
20260502102402 67 225 2.0 6.0 0.00 0.00 0.00 39
20260502100902 67 225 2.0 6.0 0.00 0.00 0.00 39
20260502090902 66 225 1.0 4.0 0.00 0.00 0.00 42
20260502070902 66 225 0.0 1.0 0.00 0.00 0.00 50
20260502065402 66 0 0.0 1.0 0.00 0.00 0.00 52
20260502063902 65 0 1.0 2.0 0.00 0.00 0.00 55
20260502062402 64 90 0.0 1.0 0.00 0.00 0.00 57
20260502060901 62 90 0.0 0.0 0.00 0.00 0.00 57
20260502055404 61 90 0.0 0.0 0.00 0.00 0.00 58
20260502053903 60 90 0.0 0.0 0.00 0.00 0.00 58
20260502052402 55 90 0.0 0.0 0.00 0.00 0.00 61
20260502050902 51 112 0.0 1.0 0.00 0.00 0.00 65
20260502045403 46 112 0.0 1.0 0.00 0.00 0.00 70
20260502043901 44 90 0.0 1.0 0.00 0.00 0.00 74
20260502042402 38 90 0.0 1.0 0.00 0.00 0.00 81
20260502040901 34 90 1.0 2.0 0.00 0.00 0.00 83
20260502035402 34 67 0.0 1.0 0.00 0.00 0.00 83
20260502033903 34 90 1.0 2.0 0.00 0.00 0.00 83
20260502032403 34 90 0.0 2.0 0.00 0.00 0.00 82
20260502030904 35 90 0.0 2.0 0.00 0.00 0.00 82
20260502025402 35 90 0.0 1.0 0.00 0.00 0.00 82
20260502023904 35 90 0.0 1.0 0.00 0.00 0.00 82
20260502022403 35 90 0.0 0.0 0.00 0.00 0.00 81
20260502020901 35 112 0.0 1.0 0.00 0.00 0.00 81
20260502015402 36 67 0.0 1.0 0.00 0.00 0.00 80
20260502013903 36 90 0.0 1.0 0.00 0.00 0.00 79
20260502012403 36 90 0.0 1.0 0.00 0.00 0.00 80
20260502010902 36 90 1.0 2.0 0.00 0.00 0.00 79
20260502005402 37 112 1.0 2.0 0.00 0.00 0.00 79
20260502003902 37 90 0.0 0.0 0.00 0.00 0.00 79
20260502002402 37 90 0.0 2.0 0.00 0.00 0.00 77
20260502000901 38 67 0.0 0.0 0.00 0.00 0.00 77
20260501235403 38 67 0.0 2.0 0.00 0.00 0.00 77
20260501233905 38 112 0.0 2.0 0.00 0.00 0.00 76
20260501232403 39 90 0.0 1.0 0.00 0.00 0.00 76
20260501230903 39 112 0.0 1.0 0.00 0.00 0.00 75
20260501225403 39 90 0.0 1.0 0.00 0.00 0.00 75
20260501223901 40 112 0.0 0.0 0.00 0.00 0.00 74
20260501222403 40 90 0.0 1.0 0.00 0.00 0.00 72
20260501220903 41 90 0.0 1.0 0.00 0.00 0.00 72
20260501215401 41 90 0.0 0.0 0.00 0.00 0.00 72
20260501213902 42 90 0.0 0.0 0.00 0.00 0.00 72
20260501212402 42 90 0.0 0.0 0.00 0.00 0.00 71
20260501210903 42 90 0.0 1.0 0.00 0.00 0.00 69
20260501205404 43 90 0.0 2.0 0.00 0.00 0.00 69
20260501203902 44 247 0.0 0.0 0.00 0.00 0.00 69
20260501202403 45 247 0.0 0.0 0.00 0.00 0.00 67
20260501200902 45 247 0.0 0.0 0.00 0.00 0.00 67